Wind_Speed
17 16 15 15 14 13 13 12 10 8 7 6 5 3 3 3 3 4 5 6 6 4 4 5 6 7 7 5 5 5 6 5 5 5 5 5 6 5 4 3 3 3 2 1
19 17 17 18 17 16 15 15 14 12 12 11 9 7 6 5 5 4 4 5 6 4 4 5 5 6 6 4 4 5 5 5 5 5 5 5 5 5 4 4 3 3 3 3
19 18 20 21 20 18 17 17 17 17 16 14 12 10 8 7 6 6 5 5 5 4 4 5 5 5 5 4 3 3 4 5 5 5 4 4 4 4 4 3 4 4 3 3
19 19 21 21 21 20 20 19 19 19 18 17 16 13 10 10 9 8 7 7 6 5 5 5 5 4 5 4 3 3 4 4 5 4 4 3 4 4 3 4 3 4 4 4
20 21 22 22 22 23 22 22 22 21 21 20 19 17 14 13 12 10 10 10 9 8 7 7 6 6 6 4 4 4 3 3 4 4 4 3 4 4 4 5 5 5 5 6
21 22 23 23 23 24 24 24 24 24 24 23 21 21 17 15 14 13 13 12 11 9 9 9 8 8 7 6 6 5 4 3 3 4 4 4 5 5 6 6 6 6 6 7
22 23 23 23 24 24 24 24 25 26 26 24 22 24 21 18 17 15 15 14 12 11 11 11 10 10 9 9 8 7 6 5 5 5 5 6 6 7 7 8 8 8 8 8
24 23 23 24 24 25 25 26 27 27 26 25 25 26 22 20 19 18 17 16 16 14 14 13 12 11 11 10 9 9 8 7 7 7 7 8 8 9 9 10 10 10 10 10
25 24 23 25 26 26 26 27 27 28 28 28 27 25 23 22 21 20 19 19 18 17 16 17 16 15 13 13 11 11 11 10 9 9 9 10 10 11 11 11 11 12 12 13
25 25 23 24 26 27 28 28 29 30 30 30 29 27 24 23 22 22 22 21 20 20 19 18 17 16 15 14 13 13 12 12 12 12 12 12 12 13 13 14 14 14 14 15
26 26 25 26 27 28 29 29 30 30 31 31 30 28 24 23 23 22 22 21 21 21 20 19 18 18 17 16 15 14 13 14 14 14 14 14 14 14 15 15 16 16 16 16
28 28 27 27 27 28 29 29 29 31 31 31 31 28 24 24 24 23 22 22 22 21 20 20 20 19 18 17 17 16 16 14 15 16 16 16 16 16 17 17 18 18 18 18
29 30 29 28 29 29 30 31 30 31 32 33 33 30 26 26 25 25 24 23 22 22 21 21 20 19 19 19 19 19 19 18 17 17 17 18 18 18 18 19 20 20 20 21
31 32 31 30 29 29 30 30 31 32 33 33 33 32 29 28 27 26 25 24 23 23 23 22 21 21 20 20 21 21 21 20 19 19 19 19 20 20 21 22 22 22 22 23
34 34 33 32 31 31 31 31 30 32 32 33 32 32 29 28 28 27 27 26 25 24 24 23 23 22 21 21 22 22 22 22 22 21 21 22 22 22 23 24 24 24 24 25
35 35 35 34 33 33 32 32 32 33 34 34 33 32 30 29 29 29 28 28 27 25 25 24 24 24 23 23 23 24 24 23 23 23 23 23 24 24 26 26 26 26 26 25
36 36 37 36 35 35 35 33 33 33 33 33 34 33 31 31 30 30 29 29 28 27 26 26 26 26 25 25 25 25 26 26 26 26 26 26 26 26 27 28 28 27 27 27
36 37 38 37 37 38 35 35 35 35 34 34 34 34 34 33 32 31 31 31 30 30 29 29 29 29 29 28 28 28 29 29 29 29 29 28 29 28 29 29 28 29 29 29
37 37 39 39 39 38 36 36 35 35 35 35 35 35 35 34 34 33 32 31 31 32 32 32 31 31 31 31 31 31 31 31 30 30 30 29 30 30 30 30 31 31 31 31
37 38 38 38 39 38 36 36 36 36 36 34 35 35 34 34 34 33 33 33 33 33 33 33 32 32 32 32 32 32 33 33 32 30 30 30 31 31 31 32 32 33 33 33
36 37 37 38 39 38 36 36 37 37 36 34 35 35 34 33 33 33 34 33 33 33 33 33 32 32 31 31 31 32 32 33 32 32 31 31 33 33 33 33 34 34 34 34
36 37 37 37 37 37 35 36 37 36 36 35 34 33 33 33 33 33 34 34 34 34 34 34 33 32 32 32 32 32 33 33 33 33 33 33 34 34 34 34 34 35 35 35
35 36 36 37 37 36 35 35 36 35 33 33 34 34 34 34 34 34 34 35 35 35 35 34 33 33 33 34 34 34 33 34 35 35 34 34 33 34 35 35 35 35 35 35
34 34 35 35 34 34 34 34 34 34 33 32 34 34 34 34 34 35 34 34 34 36 36 35 35 34 35 35 34 34 34 35 36 36 36 35 35 35 35 35 35 34 34 35
33 33 34 34 32 33 33 33 33 34 33 32 33 33 34 34 34 34 34 33 34 35 36 35 35 35 35 35 35 35 35 36 36 36 36 36 35 34 34 34 34 35 34 34
31 32 33 32 32 33 32 32 32 32 32 31 31 32 33 33 33 33 33 34 34 34 35 36 36 36 36 36 35 36 36 36 36 36 35 34 34 34 34 33 33 33 34 34
Wind_Direction
232 232 233 233 232 232 234 235 240 240 248 254 266 274 286 315 339 351 1 9 19 26 28 28 26 22 21 30 29 30 35 41 43 42 44 51 54 55 57 55 46 41 30 10
236 233 233 234 234 235 238 241 243 246 253 258 259 260 266 282 292 295 309 329 349 360 1 4 12 9 7 15 23 22 28 33 32 30 36 44 43 46 42 37 27 11 359 346
237 234 234 237 239 241 245 247 246 248 252 256 259 259 262 271 273 278 289 308 332 330 328 337 350 356 358 1 15 15 17 21 23 26 31 31 30 27 23 16 6 1 340 324
235 234 236 239 241 246 247 248 248 249 249 252 259 259 254 263 267 273 282 290 302 307 307 312 317 319 321 329 340 342 349 6 11 12 17 21 16 6 4 5 359 351 345 332
238 238 239 240 242 246 247 249 250 249 250 252 255 257 254 261 266 270 275 281 288 295 293 293 294 294 296 300 294 310 323 338 353 0 1 1 357 349 345 345 345 340 332 330
241 242 241 241 242 244 245 248 250 252 252 254 255 259 259 262 268 269 272 275 281 284 283 282 280 282 285 280 280 285 296 302 316 332 341 341 337 334 329 327 329 329 328 327
243 242 241 241 242 245 246 247 250 253 255 259 259 261 263 264 267 269 270 267 270 276 275 276 275 279 278 276 273 273 275 279 288 301 313 317 318 320 322 324 321 320 320 322
246 244 244 245 245 247 249 249 252 257 260 261 261 263 265 265 265 266 267 265 263 267 269 270 272 274 271 268 268 265 263 268 275 283 292 304 309 312 316 318 317 317 315 314
247 248 246 248 248 248 251 251 253 257 260 260 261 265 265 265 265 264 263 264 265 265 268 269 269 269 266 264 264 259 256 261 267 274 283 293 300 304 305 306 306 307 308 308
247 248 246 248 248 250 252 252 251 253 258 261 262 264 265 264 265 265 263 261 263 265 267 267 268 265 263 263 259 258 258 258 261 267 277 286 291 296 297 299 300 300 300 301
250 251 248 248 249 251 252 252 251 253 257 261 264 263 265 263 264 264 263 261 261 262 263 264 267 264 260 260 258 258 260 260 264 270 276 281 286 289 292 295 296 297 297 297
252 253 251 251 250 251 252 253 253 255 259 262 264 263 263 263 262 261 260 259 259 258 258 260 262 261 260 259 260 262 261 268 268 270 274 279 284 287 290 292 292 293 295 295
252 254 253 251 251 251 252 254 255 256 258 260 262 264 263 263 262 262 261 259 257 255 257 259 257 255 258 259 258 260 264 267 268 270 273 278 281 285 288 289 290 291 292 292
254 254 254 254 254 254 254 255 255 256 258 261 262 265 264 262 261 259 260 259 258 257 256 258 257 255 258 260 261 262 263 266 269 270 273 276 279 282 285 287 288 289 290 291
255 255 255 254 254 255 255 254 254 256 258 262 264 264 264 263 259 256 256 256 257 258 258 258 257 255 257 259 262 264 264 266 268 271 273 274 276 279 282 283 284 286 288 289
256 257 257 256 255 255 256 255 254 256 258 261 262 263 264 262 259 256 256 255 256 257 259 259 258 257 258 259 261 263 265 267 269 269 272 273 274 277 280 282 283 284 286 288
256 257 257 257 256 255 255 254 255 255 257 260 261 262 263 260 258 256 257 257 256 255 258 257 256 256 257 259 261 263 265 268 270 271 272 275 278 278 278 280 281 282 283 285
256 256 258 258 256 256 257 257 256 257 257 259 261 262 262 260 258 257 257 256 255 255 257 257 257 258 258 257 258 261 264 267 270 271 272 274 277 278 278 280 280 281 282 283
258 259 259 259 258 258 258 259 259 259 258 258 260 261 261 260 259 257 256 254 253 254 257 257 258 258 258 258 259 261 264 267 269 271 273 272 274 276 278 279 281 282 282 282
259 259 260 261 261 260 259 260 260 260 260 259 260 259 258 258 257 255 255 255 254 254 256 258 259 259 259 260 260 263 265 268 270 271 273 273 274 275 276 278 280 280 281 282
257 259 260 262 262 263 263 262 261 260 260 260 259 258 256 257 257 255 255 255 252 253 255 257 258 259 260 261 261 261 264 268 270 272 274 274 274 276 277 277 279 280 281 282
257 258 260 262 263 263 264 263 261 262 261 261 258 257 256 256 257 257 257 256 254 254 255 256 258 260 262 264 265 264 266 268 270 272 273 275 276 276 277 278 278 278 280 282
258 259 261 262 263 263 262 262 262 261 261 261 259 257 256 257 257 257 255 254 254 254 256 256 257 259 262 264 267 268 268 269 271 272 274 275 276 277 277 277 278 278 280 282
259 260 260 261 262 262 263 262 261 261 260 258 258 257 257 257 258 257 255 253 253 253 255 256 257 260 263 264 266 268 269 271 272 273 275 276 277 277 277 275 276 278 280 282
259 259 260 260 261 262 261 261 261 260 259 257 257 257 256 256 256 255 254 253 253 254 254 255 257 259 261 263 265 268 269 270 272 274 275 276 276 276 275 275 275 278 280 282
258 259 260 260 260 262 261 260 259 259 257 256 256 257 258 257 254 254 256 255 254 253 254 255 256 258 260 263 265 267 268 269 272 273 274 275 276 276 275 274 275 278 280 281
Height
5893 5896 5897 5899 5900 5901 5902 5903 5904 5905 5905 5905 5905 5906 5906 5906 5907 5907 5907 5907 5906 5905 5905 5904 5903 5902 5901 5901 5900 5899 5898 5897 5897 5896 5896 5895 5894 5894 5893 5893 5893 5892 5892 5892
5891 5893 5895 5895 5897 5898 5900 5901 5902 5903 5903 5904 5904 5905 5905 5905 5906 5906 5906 5906 5906 5905 5904 5904 5903 5902 5901 5901 5900 5900 5899 5898 5897 5897 5896 5895 5895 5894 5894 5894 5893 5893 5893 5892
5888 5891 5891 5893 5894 5896 5897 5899 5900 5901 5901 5901 5902 5903 5904 5904 5904 5905 5905 5905 5905 5904 5904 5903 5902 5901 5901 5900 5900 5900 5899 5898 5897 5897 5896 5896 5896 5895 5894 5894 5893 5893 5892 5892
5885 5887 5888 5890 5891 5893 5894 5896 5897 5897 5898 5898 5900 5900 5902 5902 5903 5903 5904 5904 5904 5904 5903 5902 5900 5900 5899 5899 5899 5899 5898 5898 5897 5897 5896 5896 5895 5895 5894 5894 5893 5892 5892 5891
5881 5883 5885 5886 5888 5890 5891 5892 5893 5893 5894 5895 5896 5897 5900 5900 5900 5901 5902 5902 5902 5902 5901 5900 5899 5898 5898 5898 5897 5897 5897 5897 5897 5897 5896 5896 5895 5895 5894 5893 5892 5892 5891 5890
5878 5879 5881 5883 5884 5885 5887 5888 5888 5889 5890 5891 5893 5894 5895 5897 5898 5898 5899 5899 5899 5899 5899 5898 5897 5897 5896 5896 5896 5896 5896 5896 5896 5896 5896 5895 5895 5894 5893 5893 5892 5891 5890 5889
5874 5875 5877 5878 5880 5881 5883 5884 5884 5884 5885 5887 5889 5889 5892 5894 5894 5894 5895 5895 5895 5896 5896 5895 5895 5895 5895 5894 5894 5894 5894 5895 5895 5895 5894 5894 5894 5893 5892 5891 5890 5889 5889 5888
5869 5871 5872 5873 5875 5876 5878 5879 5880 5881 5881 5883 5883 5884 5888 5889 5890 5890 5891 5891 5891 5892 5892 5892 5892 5892 5892 5892 5892 5892 5892 5892 5893 5893 5893 5892 5892 5891 5890 5890 5889 5888 5887 5886
5864 5866 5868 5869 5870 5871 5872 5873 5875 5875 5875 5876 5878 5880 5882 5883 5885 5885 5886 5887 5887 5888 5888 5888 5889 5889 5888 5888 5889 5889 5889 5890 5890 5890 5890 5890 5889 5889 5888 5887 5887 5886 5885 5883
5858 5861 5863 5864 5865 5865 5867 5868 5868 5869 5869 5869 5872 5874 5877 5878 5879 5881 5881 5882 5883 5883 5884 5884 5884 5885 5885 5885 5886 5885 5886 5886 5887 5887 5887 5887 5887 5886 5885 5885 5884 5883 5882 5881
5852 5854 5857 5858 5859 5860 5861 5862 5862 5863 5863 5864 5865 5870 5871 5873 5874 5875 5876 5876 5878 5878 5879 5880 5880 5880 5881 5881 5882 5881 5882 5881 5882 5883 5884 5883 5883 5883 5882 5881 5880 5879 5878 5877
5846 5848 5849 5852 5853 5853 5854 5855 5856 5857 5857 5858 5858 5864 5866 5866 5867 5869 5870 5871 5872 5872 5873 5874 5875 5875 5876 5877 5877 5878 5878 5878 5878 5879 5879 5879 5879 5879 5878 5877 5876 5875 5874 5873
5839 5840 5842 5844 5847 5847 5847 5848 5849 5849 5850 5850 5851 5857 5859 5860 5861 5862 5864 5865 5866 5867 5868 5868 5869 5870 5871 5872 5873 5873 5873 5873 5873 5873 5873 5874 5874 5873 5873 5872 5871 5870 5869 5868
5831 5832 5835 5837 5838 5839 5839 5841 5841 5842 5842 5843 5845 5848 5851 5852 5854 5855 5857 5858 5859 5861 5862 5863 5864 5865 5865 5866 5867 5868 5868 5868 5867 5867 5867 5868 5868 5867 5867 5866 5865 5864 5863 5862
5822 5824 5825 5827 5829 5830 5831 5833 5834 5834 5835 5836 5838 5840 5843 5845 5846 5848 5850 5851 5853 5854 5855 5856 5857 5858 5859 5860 5861 5861 5861 5861 5861 5861 5861 5861 5861 5861 5861 5860 5859 5858 5857 5856
5812 5814 5816 5818 5820 5821 5822 5825 5826 5827 5827 5828 5829 5832 5835 5836 5837 5839 5842 5844 5845 5847 5849 5849 5850 5851 5852 5853 5854 5854 5854 5854 5854 5854 5855 5855 5854 5854 5854 5854 5852 5851 5850 5849
5803 5805 5806 5809 5811 5811 5813 5817 5818 5818 5819 5820 5821 5824 5826 5827 5829 5831 5833 5835 5837 5839 5841 5842 5843 5844 5845 5845 5846 5847 5847 5848 5847 5848 5848 5847 5846 5846 5847 5846 5845 5844 5843 5841
5794 5795 5796 5798 5801 5802 5808 5807 5809 5810 5811 5812 5813 5815 5817 5819 5820 5822 5825 5827 5829 5831 5833 5834 5835 5836 5836 5837 5838 5839 5839 5839 5840 5840 5840 5840 5839 5839 5839 5838 5837 5836 5835 5833
5785 5786 5787 5788 5789 5792 5797 5797 5799 5800 5802 5803 5804 5805 5807 5809 5811 5813 5816 5818 5820 5822 5824 5825 5827 5827 5828 5829 5830 5830 5831 5831 5831 5832 5832 5832 5832 5831 5830 5830 5829 5827 5826 5825
5775 5776 5778 5778 5780 5782 5788 5788 5789 5791 5791 5794 5795 5796 5798 5799 5802 5805 5807 5809 5811 5813 5815 5816 5817 5818 5819 5820 5821 5822 5823 5823 5823 5823 5823 5823 5823 5823 5822 5821 5820 5818 5817 5816
5766 5766 5767 5769 5770 5773 5777 5778 5779 5781 5783 5785 5785 5786 5788 5790 5792 5795 5797 5799 5801 5803 5805 5806 5808 5809 5810 5811 5811 5813 5814 5814 5814 5814 5814 5814 5814 5813 5812 5811 5810 5809 5807 5806
5756 5757 5758 5759 5761 5765 5767 5767 5769 5770 5772 5773 5775 5776 5778 5780 5782 5785 5787 5789 5791 5793 5795 5797 5798 5800 5801 5802 5802 5803 5804 5804 5804 5805 5804 5804 5804 5803 5802 5801 5801 5799 5798 5796
5747 5749 5749 5751 5754 5755 5756 5757 5758 5759 5761 5763 5765 5767 5769 5771 5773 5775 5777 5779 5781 5783 5786 5788 5789 5790 5791 5792 5793 5794 5794 5794 5795 5795 5795 5794 5794 5793 5792 5791 5790 5789 5788 5786
5738 5739 5740 5741 5743 5745 5746 5747 5748 5750 5751 5753 5755 5757 5759 5761 5763 5765 5767 5769 5771 5773 5776 5778 5779 5780 5782 5783 5783 5784 5785 5785 5785 5785 5785 5784 5784 5783 5782 5781 5780 5779 5778 5777
5729 5730 5730 5732 5734 5735 5736 5737 5739 5740 5741 5743 5744 5746 5748 5750 5753 5755 5757 5759 5761 5763 5765 5767 5769 5770 5772 5773 5774 5774 5775 5775 5774 5774 5774 5773 5773 5772 5772 5771 5770 5770 5769 5767
5721 5721 5722 5723 5725 5725 5727 5728 5729 5730 5731 5733 5735 5737 5738 5740 5743 5745 5747 5749 5751 5753 5755 5757 5759 5760 5762 5763 5764 5764 5764 5764 5764 5764 5764 5763 5763 5762 5762 5761 5760 5759 5759 5757